Regional Weather Roundup
Issued by NWS

Home | Current Version | Previous Version | Graphics & Text | Print | Product List | Glossary Off
Versions: 1 2 3 4 5 6 7 8 9 10 11 12 13 14 15 16 17 18 19 20 21 22 23 24

000
ASUS45 KCYS 240810
RWRWY

WYOMING REGIONAL WEATHER ROUNDUP
NATIONAL WEATHER SERVICE CHEYENNE WY
200 AM MDT FRI OCT 24 2014

NOTE:  "FAIR" INDICATES FEW OR NO CLOUDS BELOW 12,000 FEET
WITH NO SIGNIFICANT WEATHER AND/OR OBSTRUCTIONS TO VISIBILITY.

WYZ001-240900-
YELLOWSTONE NATIONAL PARK

CITY           SKY/WX    TMP DP  RH WIND       PRES   REMARKS
LK YELLOWSTONE   N/A     39  29  67 CALM      30.19
W YELLOWSTONE  NOT AVBL

$$
WYZ002>013-054>058-071-098>099-240900-
NORTHERN WYOMING

CITY           SKY/WX    TMP DP  RH WIND       PRES   REMARKS
JACKSON        CLOUDY    50  27  40 S12       30.16F
CODY           CLOUDY    55  27  33 NE5       29.99
GREYBULL       CLOUDY    44  28  53 SE6       29.96S
WORLAND        MOCLDY    40  27  59 SE5       29.97R
SHERIDAN       PTCLDY    42  30  62 S8        29.92F
BUFFALO        MOCLDY    51  25  36 W9        29.98S
GILLETTE       CLOUDY    53  26  35 SW13      29.94S
HULETT         FAIR      45  30  57 SW6       29.94
NEWCASTLE      FAIR      43  30  61 CALM      29.98

$$
WYZ014>020-022>026-101>103-240900-
CENTRAL WYOMING

CITY           SKY/WX    TMP DP  RH WIND       PRES   REMARKS
BIG PINEY      MOCLDY    34  23  64 NE5       30.21R WCI  30
PINEDALE       PTSUNNY   32  28  86 NW5       30.22  WCI  27
DUBOIS         PTSUNNY   50  19  29 NW20G29   30.12S
LANDER         MOCLDY    54  22  28 VRB7      30.04R
RIVERTON       CLOUDY    48  23  37 N5        30.05S
CASPER         CLOUDY    52  28  39 SW14      30.05R
DOUGLAS        CLOUDY    56  27  32 W6        30.04S

$$
WYZ021-027>030-104>119-240900-
SOUTHERN WYOMING

CITY           SKY/WX    TMP DP  RH WIND       PRES   REMARKS
EVANSTON       MOCLDY    49  23  36 SW14      30.21R
KEMMERER       CLOUDY    41  27  56 CALM      30.22R
FORT BRIDGER   FAIR      51  23  34 W8        30.23R
ROCK SPRINGS   CLOUDY    48  27  44 S5        30.19S
DIXON          FAIR      41  32  70 CALM      30.26S
RAWLINS        MOCLDY    51  30  44 SW12      30.19S
SARATOGA       FAIR      45  30  57 S12       30.23S
LARAMIE        MOCLDY    51  24  34 SW13      30.21R
CHEYENNE       CLOUDY    50  30  46 W12       30.16R
TORRINGTON     CLOUDY    50  32  50 CALM      30.01S
PINE BLUFFS    FAIR      48  36  61 CALM      30.11F

$$



USA.gov is the U.S. government's official web portal to all federal, state and local government web resources and services.